{"data":{"norad_id":65421,"epoch":"2026-05-24T18:05:26.173824Z","epoch_age_seconds":96989,"freshness":"FRESH","line1":"1 65421U 25192T   26144.75377516  .00018493  00000+0  60619-3 0  9994","line2":"2 65421  53.1581 238.7800 0001052  62.6981 297.4128 15.31701687 41020","mean_motion":15.31701687,"eccentricity":0.0001052,"inclination_deg":53.1581,"raan_deg":238.78,"arg_perigee_deg":62.6981,"mean_anomaly_deg":297.4128,"bstar":0.00060619,"rev_number":4102,"period_min":94.01308441596,"perigee_km":470.01446504019,"apogee_km":471.45546770191,"semimajor_km":6848.871966371,"source":"CELESTRAK","updated_at":"2026-05-25T13:38:20.802899Z"}}